This is the latest recevied weather packets stored in our database for station/object KJ4OVR-WX. If no packets are shown the sender has not sent any weather packets the latest 10 day(s).
| Time | Temp. | Humidity | Pressure | Rain* | Wind** | Luminosity | Snow |
|---|---|---|---|---|---|---|---|
| 1778010961 | 22.78° C | 50% | 1010.8 hPa | 0 mm | - | - | - |
| 1778010721 | 22.78° C | 50% | 1010.7 hPa | 0 mm | - | - | - |
| 1778010361 | 23.33° C | 49% | 1010.6 hPa | 0 mm | - | - | - |
| 1778010061 | 23.33° C | 50% | 1010.5 hPa | 0 mm | - | - | - |
| 1778009761 | 23.33° C | 49% | 1010.4 hPa | 0 mm | - | - | - |
| 1778009461 | 23.89° C | 47% | 1010.3 hPa | 0 mm | - | - | - |
| 1778009161 | 23.89° C | 47% | 1010.6 hPa | 0 mm | - | - | - |
| 1778008870 | 24.44° C | 47% | 1011 hPa | 0 mm | - | - | - |
| 1778008561 | 24.44° C | 47% | 1011.4 hPa | 0 mm | - | - | - |
| 1778008261 | 24.44° C | 47% | 1011.5 hPa | 0 mm | - | - | - |
| 1778007962 | 25° C | 47% | 1011.4 hPa | 0 mm | - | - | - |
| 1778007661 | 25° C | 47% | 1011.6 hPa | 0 mm | - | - | - |
| 1778007367 | 25° C | 47% | 1011.7 hPa | 0 mm | - | - | - |
| 1778007062 | 25° C | 47% | 1011.7 hPa | 0 mm | - | - | - |
| 1778006822 | 25.56° C | 46% | 1011.5 hPa | 0 mm | - | - | - |
| 1778006462 | 25.56° C | 45% | 1011.6 hPa | 0 mm | - | - | - |
| 1778006162 | 25.56° C | 45% | 1011.7 hPa | 0 mm | - | - | - |
| 1778005863 | 25.56° C | 45% | 1011.8 hPa | 0 mm | - | - | - |
| 1778005564 | 25.56° C | 45% | 1011.8 hPa | 0 mm | - | - | - |
| 1778005262 | 25° C | 45% | 1011.8 hPa | 0 mm | - | - | - |
| 1778004964 | 25.56° C | 45% | 1011.9 hPa | 0 mm | - | - | - |
| 1778004663 | 25° C | 45% | 1012 hPa | 0 mm | - | - | - |
| 1778004423 | 25° C | 45% | 1012 hPa | 0 mm | - | - | - |
| 1778004062 | 25.56° C | 45% | 1011.7 hPa | 0 mm | - | - | - |
| 1778003763 | 25.56° C | 45% | 1011.6 hPa | 0 mm | - | - | - |
* Rain latest hour (hover to see other rain measurements)
** Current wind speed in m/s (hover to see current wind gust speed)